Regional Weather Roundup
Issued by NWS

Home | Current Version | Previous Version | Graphics & Text | Print | Product List | Glossary On
Versions: 1 2 3 4 5 6 7 8 9 10 11 12 13 14 15 16 17 18 19 20 21 22 23 24 25 26 27 28 29 30 31 32 33 34 35 36 37 38 39 40 41 42 43 44 45 46 47 48 49 50
000
ASUS43 KMKX 162300
RWRWI

WISCONSIN REGIONAL WEATHER ROUNDUP
NATIONAL WEATHER SERVICE MILWAUKEE/SULLIVAN WI
600 PM CDT WED APR 16 2014

NOTE: "FAIR" INDICATES FEW OR NO CLOUDS BELOW 12,000 FEET WITH NO
SIGNIFICANT WEATHER AND/OR OBSTRUCTIONS TO VISIBILITY.

WIZ001-002-006>008-014>016-023>028-170000-
NORTHWEST WISCONSIN

CITY           SKY/WX    TMP DP  RH WIND       PRES   REMARKS
SUPERIOR ARPT  LGT SNOW  28  26  94 NE20G31   30.15R VSB 3/4 WCI  15
ASHLAND        SNOW      27  26  96 NE21      30.15S VSB 1/2 WCI  13
HAYWARD        SNOW      29  27  92 NE16      30.03F VSB 1/4 WCI  17
SIREN          LGT SNOW  30  29  95 NE12G18   30.01R VSB 3/4 WCI  20
RICE LAKE      LGT SNOW  36  30  78 E12G20    29.97R WCI  28
LADYSMITH      CLOUDY    37  29  73 E13G20    30.01S WCI  29
EAU CLAIRE     CLOUDY    49  30  48 SE13      29.90R
MENOMONIE      CLOUDY    42  31  66 NE10G18   29.90R
NEW RICHMOND   LGT SNOW  34  32  93 NE12      29.93R WCI  25
OSCEOLA        LGT SNOW  33  32  97 NE9       29.97R WCI  25
$$

WIZ003>005-009-010-017-018-170000-
NORTH CENTRAL WISCONSIN

CITY           SKY/WX    TMP DP  RH WIND       PRES   REMARKS
WOODRUFF       LGT SNOW  32  27  81 SE14G22   30.07S WCI  22
RHINELANDER    CLOUDY    30  25  81 E14       30.10R WCI  19
EAGLE RIVER    CLOUDY    30  24  77 SE8       30.10R WCI  23
LAND O LAKES   LGT SNOW  30  27  90 SE10      30.12R VSB 3/4 WCI  21
PHILLIPS       CLOUDY    32  27  81 E16G23    30.03S WCI  21
TOMAHAWK       CLOUDY    32  27  80 E6        30.07R WCI  26
MEDFORD        CLOUDY    37  28  68 E14       30.00S WCI  29
MERRILL        CLOUDY    36  28  73 CALM      30.06R
$$

WIZ029-030-035-036-043>047-170000-
CENTRAL WISCONSIN

CITY           SKY/WX    TMP DP  RH WIND       PRES   REMARKS
WAUSAU         CLOUDY    38  28  67 E15G26    30.03S WCI  29
MOSINEE        SUNNY     37  30  75 E13G22    30.04F WCI  29
MARSHFIELD     CLOUDY    43  30  60 SE17G28   29.98R
STEVENS POINT  CLOUDY    37  28  71 E17G25    30.05R WCI  27
WAUPACA        CLOUDY    43  28  56 SE21G30   30.08F
WAUTOMA        NOT AVBL
WISC RAPIDS    CLOUDY    45  30  55 SE8       30.02S
CAMP DOUGLAS   NOT AVBL
$$

WIZ011>013-019>022-031-037>040-048>050-170000-
NORTHEAST WISCONSIN

CITY           SKY/WX    TMP DP  RH WIND       PRES   REMARKS
ANTIGO         CLOUDY    32  27  81 SE21G33   30.08S HAZE    WCI  20
STURGEON BAY   CLOUDY    34  25  69 SE12G20   30.25S WCI  25
GREEN BAY      CLOUDY    38  24  57 SE24G30   30.17F WCI  27
MANITOWOC      NOT AVBL
APPLETON       PTSUNNY   39  25  56 SE21G28   30.12F WCI  29
CLINTONVILLE   CLOUDY    37  28  70 SE20G26   30.11F WCI  27
OSHKOSH        CLOUDY    40  25  55 SE17G31   30.10F WCI  31
$$

WIZ032>034-041-042-053>061-170000-
SOUTHWEST WISCONSIN

CITY           SKY/WX    TMP DP  RH WIND       PRES   REMARKS
LA CROSSE      CLOUDY    54  28  36 SE13G23   29.90S
SPARTA         CLOUDY    51  26  38 SE12G18   29.93F
VIROQUA        CLOUDY    49  29  45 SE17G26   29.91F
BOSCOBEL       CLOUDY    54  26  34 MISG      29.95S
PRAIRIE DU CHI CLOUDY    54  25  32 SE13G21   29.91R
PLATTEVILLE    FAIR      51  29  42 SE24G33   29.96F
$$

WIZ056-057-062-063-064-067-068-170000-
SOUTH CENTRAL WISCONSIN

CITY           SKY/WX    TMP DP  RH WIND       PRES   REMARKS
BARABOO/DELLS  CLOUDY    48  29  48 SE16G30   30.00S
LONE ROCK      NOT AVBL
WATERTOWN      CLOUDY    49  28  44 S16G24    30.07F
MADISON        CLOUDY    50  30  46 S22G36    30.03F
MIDDLETON      FAIR      51  28  40 S21G29    30.02S
MONROE         CLOUDY    50  29  44 SE25G35   30.01F
JANESVILLE     CLOUDY    52  25  35 SE21G29   30.06F
$$

WIZ051-052-058>065-066-070>072-170000-
SOUTHEAST WISCONSIN

CITY           SKY/WX    TMP DP  RH WIND       PRES   REMARKS
MILWAUKEE      PTSUNNY   42  27  55 SE21G31   30.16F
WAUKESHA       PTSUNNY   45  25  45 SE22G29   30.13S
MILWAUKEE/TIMM SUNNY     43  21  42 SE18G32   30.15F
RACINE         MOSUNNY   42  27  55 SE17G28   30.17F
BURLINGTON     MOSUNNY   47  28  47 S16G23    30.11S
KENOSHA        MOSUNNY   45  26  47 SE20G29   30.14F
FOND DU LAC    CLOUDY    42  26  53 SE23G29   30.11S
SHEBOYGAN      CLOUDY    38  24  57 SE14G21   30.18F WCI  30
WEST BEND      CLOUDY    41  23  48 SE15G22   30.14F
JUNEAU         CLOUDY    46  26  46 SE16G24   30.09S
$$

LSZ147-162-170000-
LAKE SUPERIOR

STATION/POSITION TIME  TEMP    WIND        PRES    WAVE
                       AIR SEA DIR/SP/G            HT/PER
                 (UTC) (F)     (DEG/KT/KT) (MB)    (FT/S)
DEVILS ISLAND    2200   27      60/ 26/ 29 1023.8S
PORT WING        2200   28      40/ 20/ 23 1021.0S
SAXON HARBOR     2240           50/ 18/ 22 1020.7S
$$

LMZ867-665-643>646-170000-
LAKE MICHIGAN

STATION/POSITION TIME  TEMP    WIND        PRES    WAVE
                       AIR SEA DIR/SP/G            HT/PER
                 (UTC) (F)     (DEG/KT/KT) (MB)    (FT/S)
NORTHPORT PIER   2200   31     110/ 20/ 24 1024.7F
SISTER BAY       2223   34     150/ 12/ 19   N/A
SHEBOYGAN LAKESH 2200   38     120/ 22/ 24 1023.0F
PORT WASHINGTON  2200   38     130/ 15/ 21 1022.4F
MILWAUKEE LAKESH 2200   38     130/ 21/ 23   N/A
KENOSHA   LAKESH 2200   40     130/ 22/ 26   N/A
$$

TC  - TEMPERATURE IN CELSIUS
VSB - VISIBILITY IN STATUTE MILES
WCI - WIND CHILL INDEX
HX  - HEAT INDEX




USA.gov is the U.S. government's official web portal to all federal, state and local government web resources and services.